Location: ????????
(54.9045°N, 39.1041°E)
Time: 15:02:30
(UTC+00:00)

CZ-2C R/B - Visible Passes

Search period start: 12 July 2024 00:00
Search period end: 22 July 2024 00:00
Orbit: 702 x 905 km, 98.2° (Epoch: 12 July)

Date Brightness Start Highest point End Pass type
(mag) Time Alt. Az. Time Alt. Az. Time Alt. Az.
12 Jul 5.1 22:13:11 10° NE 22:16:10 16° E 22:19:07 10° SE visible
12 Jul 2.9 23:51:53 10° NNE 23:56:45 87° WNW 00:01:30 10° SSW visible
13 Jul 3.3 23:26:22 10° NNE 23:31:09 60° ESE 23:35:50 10° S visible
14 Jul 3.9 23:00:58 10° NNE 23:05:27 38° E 23:09:50 10° SSE visible
15 Jul 4.6 22:35:45 10° NE 22:39:39 24° E 22:43:30 10° SE visible
16 Jul 3.1 00:15:10 10° N 00:19:53 58° WNW 00:24:32 10° SSW visible
16 Jul 5.1 22:10:54 10° NE 22:13:45 16° E 22:16:36 10° ESE visible
16 Jul 2.9 23:49:31 10° NNE 23:54:21 90° WNW 23:59:06 10° SSW visible
17 Jul 3.3 23:24:00 10° NNE 23:28:44 58° ESE 23:33:24 10° S visible
18 Jul 4.0 22:58:36 10° NNE 23:03:01 36° E 23:07:24 10° SSE visible
19 Jul 4.6 22:33:23 10° NE 22:37:13 24° E 22:41:02 10° SE visible
20 Jul 3.1 00:12:46 10° N 00:17:28 60° WNW 00:22:09 10° SSW visible
20 Jul 5.2 22:08:34 10° NE 22:11:20 15° E 22:14:05 10° ESE visible
20 Jul 2.9 23:47:08 10° NNE 23:51:56 88° ESE 23:56:42 10° SSW visible
21 Jul 3.3 23:21:37 10° NNE 23:26:18 56° E 23:30:56 10° S visible
